Overview Statistics Trail Chart Weather Telemetry Raw packets
 

This is the latest recevied weather packets stored in our database for station/object VK4TW-13. If no packets are shown the sender has not sent any weather packets the latest 10 day(s).

<< 25 26 27 28 29 30 31 >>
Time Temp. Humidity Pressure Rain* Wind** Luminosity Snow
1788321292 25.56° C 100% 1019.8 hPa 0 mm - - -
1788320928 26.11° C 100% 1019.9 hPa 0 mm - - -
1788320515 26.11° C 100% 1019.9 hPa 0 mm - - -
1788319914 26.67° C 100% 1020 hPa 0 mm - - -
1788319313 27.22° C 100% 1020.2 hPa 0 mm - - -
1788319128 27.22° C 100% 1020.2 hPa 0 mm - - -
1788318646 27.22° C 100% 1020.4 hPa 0 mm - - -
1788318423 27.22° C 100% 1020.4 hPa 0 mm - - -
1788318164 27.78° C 100% 1020.5 hPa 0 mm - - -
1788317564 27.78° C 100% 1020.5 hPa 0 mm - - -
1788317376 27.78° C 100% 1020.8 hPa 0 mm - - -
1788317071 27.78° C 99% 1020.7 hPa 0 mm - - -
1788316822 27.78° C 100% 1020.9 hPa 0 mm - - -
1788316260 27.78° C 100% 1021.2 hPa 0 mm - - -
1788315659 27.78° C 100% 1021.5 hPa 0 mm - - -
1788315059 27.78° C 100% 1021.6 hPa 0 mm - - -
1788314785 27.78° C 100% 1021.8 hPa 0 mm - - -
1788314287 27.22° C 100% 1021.9 hPa 0 mm - - -
1788314027 27.22° C 100% 1022.1 hPa 0 mm - - -
1788313845 27.22° C 100% 1022.2 hPa 0 mm - - -
1788313328 27.22° C 100% 1022.4 hPa 0 mm - - -
1788312825 27.22° C 100% 1022.6 hPa 0 mm - - -
1788312220 27.22° C 100% 1022.9 hPa 0 mm - - -
1788311630 26.67° C 100% 1023.1 hPa 0 mm - - -
1788311030 26.11° C 100% 1023.4 hPa 0 mm - - -

* Rain since midnight (hover to see other rain measurements)
** Current wind speed in m/s (hover to see current wind gust speed)